Flag for Colombia Weather past 2 weeks in Cúcuta, Colombia

Now
86 °F

Passing clouds.


Feels Like: 87 °F
Forecast: 72 / 99 °F
Wind: N/A

Location: San Antonio Del Tachira Airport

Current Time: Jul 31, 2015 at 7:42:57 PM

Latest Report: Jul 31, 2015 at 7:00 PM


Visibility: N/A

Pressure: 29.89 "Hg

Humidity: 49%

Dew point: 64 °F

Location of CúcutaLocation

Historic Weather in Cúcuta — Graph

°F

Cúcuta temperature yesterday

Maximum temperature yesterday: 86 °F (at 1:00 PM)
Minimum temperature yesterday: 75 °F (at 8:00 AM)
Average temperature yesterday: 81 °F

Past Weeks' High & Low Weather Summary

 TemperatureHumidityPressure
High95 °F (Jul 19, 1:00 PM)100% (Jul 16, 8:00 PM)30.07 "Hg (Jul 16, 8:00 PM)
Low72 °F (Jul 23, 7:00 AM)38% (Jul 25, 2:00 PM)29.80 "Hg (Jul 26, 5:00 PM)
Average84 °F60%29.95 "Hg
* Reported Jul 16 6:00 PM — Jul 31 5:00 PM, Cúcuta, Weather by CustomWeather, © 2015

Note: Actual official high and low records may vary slightly from our data, if they occured in-between our weather recording intervals... More about our weather records

Advertising

Cúcuta weather history for previous 24 hours

 ConditionsComfort  
Time TempWeatherWind HumidityBarometerVisibility
5:00 PM
Fri, Jul 31
91 °FPassing clouds.N/A44%29.83 "HgN/A
4:00 PM91 °FPassing clouds.N/A46%29.83 "HgN/A
3:00 PM91 °FPassing clouds.N/A46%29.95 "HgN/A
2:00 PM91 °FPassing clouds.N/A46%29.95 "HgN/A
1:00 PM93 °FPassing clouds.N/A44%29.98 "HgN/A
12:00 PM91 °FPassing clouds.N/A46%29.98 "HgN/A
11:00 AM88 °FPassing clouds.N/A52%29.98 "HgN/A
10:00 AM88 °FScattered clouds.N/A52%29.98 "HgN/A
9:00 AM84 °FPartly sunny.N/A58%29.98 "HgN/A
8:00 AM82 °FPartly sunny.N/A62%29.95 "HgN/A
7:00 AM79 °FPartly sunny.N/A65%29.95 "HgN/A
6:00 AM77 °FPartly sunny.N/A74%29.95 "HgN/A
4:00 AM81 °FPassing clouds.N/A58%29.92 "HgN/A
1:00 AM75 °FPassing clouds.No wind94%29.89 "HgN/A
10:00 PM
Thu, Jul 30
81 °FPassing clouds.N/A62%29.98 "HgN/A
9:00 PM82 °FPassing clouds.N/A51%29.95 "Hg4 mi
8:00 PM81 °FPassing clouds.N/A62%29.95 "HgN/A
7:00 PM82 °FPassing clouds.N/A55%29.92 "Hg4 mi
Weather by CustomWeather, © 2015

See weather overviewHow to use our weather pages